#timestamp,LO_Frequency,Hit 
1502838015.3,286047002.7,N
1502838035.1,286047004.4,N
1502838055.8,286047001.3,N
1502838075.7,286047004.1,N
1502838095.5,286047003.3,N
1502838115.3,286047005.0,N
1502838135.2,286047006.1,N
1502838155.9,286047008.4,N
1502838175.7,286047009.9,N
1502838195.6,286047009.6,N
1502838215.4,286047007.9,N
1502838235.2,286047009.9,N
1502838255.1,286047011.2,N
1502838256.0,286047011.2,N
1502838275.8,286047016.3,N
1502838295.6,286047015.8,N
1502838315.5,286047015.9,N
1502838335.3,286047017.2,N
1502838355.1,286047012.9,N
1502838375.9,286047014.2,N
1502838395.7,286047012.6,N
1502838415.5,286047012.9,N
1502838435.4,286047013.5,N
1502838455.2,286047010.4,N
1502838475.0,286047007.6,N
1502838475.9,286047007.6,N
1502838495.8,286047006.4,N
1502838515.6,286047005.4,N
1502838535.4,286047007.1,N
1502838555.3,286047004.5,N
1502838575.1,286047003.4,N
1502838576.0,286047003.4,N
1502838595.8,286047006.0,N
1502838615.7,286047003.4,N
1502838635.5,286047003.5,N
1502838655.3,286047003.4,N
1502838675.2,286047004.8,N
1502838695.9,286047004.9,N
1502838715.7,286047005.5,N
1502838735.5,286047005.7,N
1502838755.4,286047003.5,N
1502838775.2,286047005.6,N
1502838795.0,286047004.4,N
1502838795.9,286047004.4,N
1502838815.8,286047005.3,N
1502838835.6,286047005.0,N
1502838855.4,286047005.7,N
1502838875.3,286047006.9,N
1502838895.1,286047006.9,N
1502838915.8,286047003.4,N
1502838935.7,286047001.8,N
1502838955.5,286047001.7,N
1502838975.3,286047002.7,N
1502838995.2,286047002.2,N
1502839015.0,286047002.6,N
1502839015.9,286047002.6,N
1502839035.8,286047000.1,N
1502839055.6,286047002.3,N
1502839075.4,286047001.5,N
1502839095.3,286047005.3,P
1502839115.1,286047000.1,N
1502839116.0,286047000.1,N
1502839135.8,286047001.7,N
1502839155.7,286047000.9,N
1502839175.5,286047002.5,N
1502839195.3,286046998.1,N
1502839215.2,286046998.2,N
1502839235.9,286046998.3,N
1502839255.7,286046999.9,N
1502839275.6,286047002.8,N
1502839295.4,286046999.1,N
1502839315.2,286046995.5,N
1502839335.0,286046994.7,N
1502839336.0,286046994.7,N
1502839355.8,286046995.9,N
1502839375.6,286046997.3,N
1502839395.4,286046997.3,N
1502839415.3,286046997.1,N
1502839435.1,286046995.8,N
1502839455.8,286046995.8,N
1502839475.7,286046993.3,N
1502839495.5,286046993.4,N
1502839515.3,286046993.3,N
1502839535.2,286046997.5,N
1502839555.9,286046996.8,N
1502839575.7,286046997.3,N
1502839595.6,286046996.6,N
1502839615.4,286046999.2,N
1502839635.2,286047000.5,N
1502839655.1,286046999.0,N
1502839675.2,286046997.1,N
1502839695.9,286046999.0,N
1502839715.7,286046998.3,N
1502839735.6,286046997.4,N
1502839755.4,286046999.3,N
1502839775.2,286047002.7,N
1502839795.1,286047003.7,N
1502839796.0,286047003.7,N
1502839815.8,286047005.2,N
1502839835.6,286047004.4,N
1502839855.5,286047004.0,N
1502839875.3,286047003.7,N
1502839895.1,286047006.6,N
1502839915.9,286047007.3,N
1502839935.7,286047008.9,N
1502839955.5,286047009.0,N
1502839975.4,286047007.6,N
1502839995.2,286047005.3,N
1502840015.0,286047006.6,N
1502840015.9,286047006.6,N
1502840035.8,286047008.8,N
1502840055.6,286047006.1,N
1502840075.4,286047008.1,N
1502840095.2,286047010.7,N
1502840115.1,286047008.1,N
1502840116.0,286047008.1,N
1502840135.8,286047010.3,N
1502840155.6,286047008.4,N
1502840175.5,286047006.6,N
1502840195.3,286047006.6,N
1502840215.1,286047006.8,N
1502840235.9,286047010.3,P
1502840255.7,286047005.7,N
1502840275.6,286047004.6,N
1502840295.4,286047003.4,N
1502840315.2,286047003.2,N
1502840335.0,286047003.6,N
1502840336.0,286047003.6,N
1502840355.8,286047001.3,N
1502840375.6,286047000.2,N
1502840395.5,286047001.8,N
1502840415.3,286047004.1,N
1502840435.1,286047000.7,N
1502840455.9,286047001.2,N
1502840475.7,286046998.3,N
1502840495.5,286047001.0,N
1502840515.4,286046998.2,N
1502840535.2,286047001.1,N
1502840555.0,286047001.9,N
1502840555.9,286047001.9,N
1502840575.8,286047001.4,N
1502840595.6,286047005.4,N
1502840615.4,286047003.4,N
1502840635.3,286047004.3,N
1502840655.1,286047001.7,N
1502840656.0,286047001.7,N
1502840675.8,286047005.5,N
1502840695.7,286047004.4,N
1502840715.5,286047001.8,N
1502840735.3,286047002.0,N
1502840755.2,286046998.7,N
1502840775.9,286047000.7,N
1502840795.7,286047003.8,N
1502840815.6,286047004.1,N
1502840835.4,286047003.1,N
1502840855.2,286047005.8,P
1502840875.4,286047002.3,N
1502840895.2,286047005.5,P
1502840915.1,286047003.5,N
1502840916.0,286047003.5,N
1502840935.8,286046999.9,N
1502840955.6,286047003.6,N
1502840975.5,286047003.5,N
1502840995.3,286047003.8,N
1502841015.1,286047003.0,N
1502841035.9,286047001.3,N
1502841055.7,286047002.1,N
1502841075.5,286047006.0,P
1502841095.4,286047000.0,N
1502841115.2,286047002.7,N
1502841135.0,286047000.0,N
1502841135.9,286047000.0,N
1502841155.8,286046998.6,N
1502841175.6,286046996.9,N
1502841195.4,286046998.2,N
1502841215.3,286047000.5,N
1502841235.1,286046996.9,N
1502841236.0,286046996.9,N
1502841255.8,286047000.7,N
1502841275.7,286046996.5,N
1502841295.5,286046999.6,N
1502841315.3,286046998.3,N
1502841335.2,286046998.2,N
1502841355.9,286047001.0,N
1502841375.7,286046996.9,N
1502841395.5,286046994.9,N
1502841415.4,286046995.2,N
1502841435.2,286046995.4,N
1502841455.0,286046996.0,N
1502841455.9,286046996.0,N
1502841475.8,286046997.9,N
1502841495.6,286046997.4,N
1502841515.4,286046997.9,N
1502841535.3,286046995.5,N
1502841555.1,286046998.0,N
1502841575.8,286046993.3,N
1502841595.7,286046995.6,N
